TimePDT,TemperatureF,Dew PointF,Humidity,Sea Level PressureIn,VisibilityMPH,Wind Direction,Wind SpeedMPH,Gust SpeedMPH,PrecipitationIn,Events,Conditions,WindDirDegrees,DateUTC
12:16 AM,53.6,48.2,82,29.99,10.0,SSE,8.1,-,0.00,,Overcast,160,2013-05-30 07:16:00
12:53 AM,53.1,46.9,80,30.01,10.0,South,11.5,17.3,0.00,,Overcast,170,2013-05-30 07:53:00
1:53 AM,52.0,45.0,77,30.03,10.0,South,8.1,-,N/A,,Scattered Clouds,170,2013-05-30 08:53:00
2:17 AM,51.8,44.6,76,30.02,10.0,SE,5.8,-,N/A,,Mostly Cloudy,140,2013-05-30 09:17:00
2:53 AM,51.1,46.0,83,30.04,10.0,SE,8.1,-,N/A,,Overcast,140,2013-05-30 09:53:00
3:46 AM,50.0,44.6,82,30.04,10.0,SE,6.9,-,N/A,,Partly Cloudy,130,2013-05-30 10:46:00
3:53 AM,50.0,45.0,83,30.05,10.0,SE,4.6,-,N/A,,Partly Cloudy,130,2013-05-30 10:53:00
4:53 AM,50.0,45.0,83,30.06,10.0,SSE,5.8,-,N/A,,Partly Cloudy,160,2013-05-30 11:53:00
5:53 AM,51.1,44.1,77,30.08,10.0,SSE,8.1,-,N/A,,Mostly Cloudy,150,2013-05-30 12:53:00
6:14 AM,51.8,44.6,76,30.06,10.0,SSE,8.1,-,N/A,,Overcast,150,2013-05-30 13:14:00
6:50 AM,51.8,44.6,76,30.07,10.0,SSE,6.9,-,N/A,,Overcast,150,2013-05-30 13:50:00
6:53 AM,52.0,45.0,77,30.08,10.0,SSE,5.8,-,N/A,,Overcast,150,2013-05-30 13:53:00
7:37 AM,53.6,44.6,72,30.08,10.0,South,9.2,-,N/A,,Overcast,170,2013-05-30 14:37:00
7:53 AM,53.1,44.1,71,30.10,10.0,South,9.2,-,N/A,,Overcast,170,2013-05-30 14:53:00
8:25 AM,53.6,44.6,72,30.10,10.0,SSE,11.5,18.4,N/A,,Overcast,160,2013-05-30 15:25:00
8:53 AM,54.0,44.1,69,30.12,10.0,South,8.1,-,N/A,,Overcast,170,2013-05-30 15:53:00
9:53 AM,55.9,44.1,64,30.12,10.0,SSE,8.1,-,N/A,,Overcast,160,2013-05-30 16:53:00
10:53 AM,57.9,44.1,60,30.13,10.0,South,10.4,19.6,N/A,,Mostly Cloudy,180,2013-05-30 17:53:00
11:53 AM,61.0,44.1,54,30.14,10.0,South,8.1,16.1,N/A,,Scattered Clouds,170,2013-05-30 18:53:00
12:53 PM,62.1,42.1,48,30.14,10.0,SSW,8.1,17.3,N/A,,Mostly Cloudy,200,2013-05-30 19:53:00
1:53 PM,61.0,44.1,54,30.16,10.0,South,9.2,-,N/A,,Overcast,170,2013-05-30 20:53:00
2:53 PM,61.0,44.1,54,30.17,6.0,Variable,6.9,-,N/A,,Haze,0,2013-05-30 21:53:00
3:53 PM,62.1,44.1,52,30.17,5.0,South,10.4,20.7,N/A,,Haze,190,2013-05-30 22:53:00
4:53 PM,59.0,46.0,62,30.19,10.0,South,8.1,18.4,N/A,,Mostly Cloudy,170,2013-05-30 23:53:00
5:53 PM,59.0,45.0,60,30.17,10.0,SSE,8.1,16.1,N/A,,Overcast,160,2013-05-31 00:53:00
6:53 PM,59.0,45.0,60,30.19,10.0,South,9.2,-,N/A,,Overcast,170,2013-05-31 01:53:00
7:53 PM,57.9,46.0,65,30.21,10.0,South,9.2,-,N/A,,Overcast,190,2013-05-31 02:53:00
8:53 PM,55.9,48.0,75,30.22,10.0,SE,3.5,-,N/A,,Overcast,130,2013-05-31 03:53:00
9:02 PM,55.4,48.2,77,30.20,10.0,SE,6.9,-,N/A,,Overcast,130,2013-05-31 04:02:00
9:53 PM,54.0,48.9,83,30.24,10.0,SE,5.8,-,N/A,,Overcast,140,2013-05-31 04:53:00
10:53 PM,54.0,48.0,80,30.26,10.0,SE,3.5,-,N/A,,Overcast,140,2013-05-31 05:53:00
11:53 PM,54.0,48.0,80,30.27,10.0,ESE,4.6,-,N/A,,Overcast,120,2013-05-31 06:53:00